Time,TemperatureF,DewpointF,PressureIn,WindDirection,WindDirectionDegrees,WindSpeedMPH,WindSpeedGustMPH,Humidity,HourlyPrecipIn,Conditions,Clouds,dailyrainin,SoftwareType,DateUTC
2013-03-10 00:00:00,52.6,35.0,30.24,North,4,1.0,1.0,51,0.00,,CLR,0.00,VWS V14.01,2013-03-10 08:00:00,
2013-03-10 00:05:00,52.9,34.8,30.24,North,349,1.0,4.0,50,0.00,,CLR,0.00,VWS V14.01,2013-03-10 08:05:00,
2013-03-10 00:10:00,53.3,34.7,30.24,North,350,1.0,4.0,49,0.00,,CLR,0.00,VWS V14.01,2013-03-10 08:10:00,
2013-03-10 00:15:00,53.5,34.8,30.23,NNW,342,3.0,3.0,49,0.00,,CLR,0.00,VWS V14.01,2013-03-10 08:15:00,
2013-03-10 00:20:00,53.5,34.8,30.23,NNW,345,3.0,4.0,49,0.00,,CLR,0.00,VWS V14.01,2013-03-10 08:20:00,
2013-03-10 00:25:00,53.6,34.9,30.23,NW,324,0.0,4.0,49,0.00,,CLR,0.00,VWS V14.01,2013-03-10 08:25:00,
2013-03-10 00:30:00,53.5,34.8,30.23,West,280,1.0,4.0,49,0.00,,CLR,0.00,VWS V14.01,2013-03-10 08:30:00,
2013-03-10 00:35:00,53.5,34.8,30.23,North,353,2.0,4.0,49,0.00,,CLR,0.00,VWS V14.01,2013-03-10 08:35:00,
2013-03-10 00:40:00,53.3,35.2,30.23,WNW,286,1.0,5.0,50,0.00,,CLR,0.00,VWS V14.01,2013-03-10 08:40:00,
2013-03-10 00:45:00,53.3,35.2,30.24,NNW,343,0.0,1.0,50,0.00,,CLR,0.00,VWS V14.01,2013-03-10 08:45:00,
2013-03-10 00:50:00,53.3,35.2,30.24,NW,317,0.0,3.0,50,0.00,,CLR,0.00,VWS V14.01,2013-03-10 08:50:00,
2013-03-10 00:55:00,53.3,35.2,30.24,North,351,3.0,4.0,50,0.00,,CLR,0.00,VWS V14.01,2013-03-10 08:55:00,
2013-03-10 01:00:00,53.3,35.2,30.23,NNW,344,2.0,4.0,50,0.00,,CLR,0.00,VWS V14.01,2013-03-10 09:00:00,
2013-03-10 01:05:00,53.5,35.3,30.23,WNW,285,1.0,5.0,50,0.00,,CLR,0.00,VWS V14.01,2013-03-10 09:05:00,
2013-03-10 01:10:00,53.3,35.2,30.23,WNW,287,4.0,5.0,50,0.00,,CLR,0.00,VWS V14.01,2013-03-10 09:10:00,
2013-03-10 01:15:00,53.3,36.1,30.23,WNW,289,2.0,3.0,52,0.00,,CLR,0.00,VWS V14.01,2013-03-10 09:15:00,
2013-03-10 01:20:00,53.2,36.0,30.23,WNW,289,2.0,3.0,52,0.00,,CLR,0.00,VWS V14.01,2013-03-10 09:20:00,
2013-03-10 01:25:00,53.1,36.0,30.23,North,11,1.0,5.0,52,0.00,,CLR,0.00,VWS V14.01,2013-03-10 09:25:00,
2013-03-10 01:30:00,53.1,36.4,30.23,WNW,301,2.0,2.0,53,0.00,,CLR,0.00,VWS V14.01,2013-03-10 09:30:00,
2013-03-10 01:35:00,53.2,36.5,30.23,North,358,2.0,5.0,53,0.00,,CLR,0.00,VWS V14.01,2013-03-10 09:35:00,
2013-03-10 01:40:00,53.3,36.6,30.23,NW,306,6.0,6.0,53,0.00,,CLR,0.00,VWS V14.01,2013-03-10 09:40:00,
2013-03-10 01:45:00,53.3,37.1,30.23,WNW,298,2.0,4.0,54,0.00,,CLR,0.00,VWS V14.01,2013-03-10 09:45:00,
2013-03-10 01:50:00,53.1,36.9,30.23,NW,319,1.0,5.0,54,0.00,,CLR,0.00,VWS V14.01,2013-03-10 09:50:00,
2013-03-10 01:55:00,52.9,36.7,30.23,NNW,335,0.0,5.0,54,0.00,,CLR,0.00,VWS V14.01,2013-03-10 09:55:00,
2013-03-10 03:00:00,52.8,37.1,30.23,NW,320,0.0,2.0,55,0.00,,CLR,0.00,VWS V14.01,2013-03-10 10:00:00,
2013-03-10 03:05:00,52.6,36.9,30.23,NNW,327,4.0,8.0,55,0.00,,CLR,0.00,VWS V14.01,2013-03-10 10:05:00,
2013-03-10 03:10:00,52.6,36.9,30.23,WNW,289,5.0,8.0,55,0.00,,CLR,0.00,VWS V14.01,2013-03-10 10:10:00,
2013-03-10 03:15:00,52.5,36.8,30.23,WNW,286,4.0,4.0,55,0.00,,CLR,0.00,VWS V14.01,2013-03-10 10:15:00,
2013-03-10 03:20:00,52.5,36.8,30.23,NW,316,3.0,7.0,55,0.00,,CLR,0.00,VWS V14.01,2013-03-10 10:20:00,
2013-03-10 03:25:00,52.5,36.8,30.23,SSW,197,0.0,7.0,55,0.00,,CLR,0.00,VWS V14.01,2013-03-10 10:25:00,
2013-03-10 03:30:00,52.8,36.6,30.23,South,191,2.0,2.0,54,0.00,,CLR,0.00,VWS V14.01,2013-03-10 10:30:00,
2013-03-10 03:35:00,52.9,36.7,30.23,South,173,4.0,6.0,54,0.00,,CLR,0.00,VWS V14.01,2013-03-10 10:35:00,
2013-03-10 03:40:00,53.1,36.0,30.23,SSE,165,3.0,6.0,52,0.00,,CLR,0.00,VWS V14.01,2013-03-10 10:40:00,
2013-03-10 03:45:00,53.1,36.4,30.23,SSE,153,2.0,4.0,53,0.00,,CLR,0.00,VWS V14.01,2013-03-10 10:45:00,
2013-03-10 03:50:00,52.9,36.7,30.23,SE,140,3.0,5.0,54,0.00,,CLR,0.00,VWS V14.01,2013-03-10 10:50:00,
2013-03-10 03:55:00,52.8,36.6,30.23,SE,139,2.0,5.0,54,0.00,,CLR,0.00,VWS V14.01,2013-03-10 10:55:00,
2013-03-10 04:00:00,52.8,37.1,30.23,SE,139,3.0,3.0,55,0.00,,CLR,0.00,VWS V14.01,2013-03-10 11:00:00,
2013-03-10 04:05:00,52.8,37.1,30.23,SE,137,4.0,5.0,55,0.00,,CLR,0.00,VWS V14.01,2013-03-10 11:05:00,
2013-03-10 04:10:00,52.8,36.6,30.23,SE,137,2.0,5.0,54,0.00,,CLR,0.00,VWS V14.01,2013-03-10 11:10:00,
2013-03-10 04:15:00,52.8,36.6,30.23,SE,137,4.0,5.0,54,0.00,,CLR,0.00,VWS V14.01,2013-03-10 11:15:00,
2013-03-10 04:20:00,52.6,37.4,30.23,SE,137,1.0,5.0,56,0.00,,CLR,0.00,VWS V14.01,2013-03-10 11:20:00,
2013-03-10 04:25:00,52.2,37.0,30.23,SE,137,2.0,5.0,56,0.00,,CLR,0.00,VWS V14.01,2013-03-10 11:25:00,
2013-03-10 04:30:00,52.0,36.8,30.23,SE,137,1.0,2.0,56,0.00,,CLR,0.00,VWS V14.01,2013-03-10 11:30:00,
2013-03-10 04:35:00,51.9,37.2,30.23,SE,137,4.0,4.0,57,0.00,,CLR,0.00,VWS V14.01,2013-03-10 11:35:00,
2013-03-10 04:40:00,51.7,37.0,30.23,WSW,250,3.0,4.0,57,0.00,,CLR,0.00,VWS V14.01,2013-03-10 11:40:00,
2013-03-10 04:45:00,51.7,37.0,30.23,North,353,3.0,3.0,57,0.00,,CLR,0.00,VWS V14.01,2013-03-10 11:45:00,
2013-03-10 04:50:00,51.4,35.8,30.23,WNW,301,1.0,3.0,55,0.00,,CLR,0.00,VWS V14.01,2013-03-10 11:50:00,
2013-03-10 04:55:00,51.6,36.0,30.23,WSW,239,2.0,3.0,55,0.00,,CLR,0.00,VWS V14.01,2013-03-10 11:55:00,
2013-03-10 05:00:00,51.4,35.8,30.23,WNW,301,2.0,3.0,55,0.00,,CLR,0.00,VWS V14.01,2013-03-10 12:00:00,
2013-03-10 05:05:00,51.4,35.3,30.23,WNW,301,0.0,3.0,54,0.00,,CLR,0.00,VWS V14.01,2013-03-10 12:05:00,
2013-03-10 05:10:00,51.7,35.6,30.23,WNW,301,2.0,3.0,54,0.00,,CLR,0.00,VWS V14.01,2013-03-10 12:10:00,
2013-03-10 05:15:00,52.0,35.4,30.24,WNW,301,0.0,0.0,53,0.00,,CLR,0.00,VWS V14.01,2013-03-10 12:15:00,
2013-03-10 05:20:00,52.3,35.7,30.24,WNW,301,1.0,3.0,53,0.00,,CLR,0.00,VWS V14.01,2013-03-10 12:20:00,
2013-03-10 05:25:00,52.3,36.2,30.24,WNW,301,1.0,3.0,54,0.00,,CLR,0.00,VWS V14.01,2013-03-10 12:25:00,
2013-03-10 05:30:00,52.5,35.4,30.24,WNW,301,0.0,0.0,52,0.00,,CLR,0.00,VWS V14.01,2013-03-10 12:30:00,
2013-03-10 05:35:00,52.3,35.7,30.24,WNW,301,2.0,3.0,53,0.00,,CLR,0.00,VWS V14.01,2013-03-10 12:35:00,
2013-03-10 05:40:00,52.3,35.2,30.24,NW,309,1.0,3.0,52,0.00,,CLR,0.00,VWS V14.01,2013-03-10 12:40:00,
2013-03-10 05:45:00,53.1,34.5,30.23,NW,311,1.0,2.0,49,0.00,,CLR,0.00,VWS V14.01,2013-03-10 12:45:00,
2013-03-10 05:50:00,53.5,34.8,30.23,NW,311,3.0,3.0,49,0.00,,CLR,0.00,VWS V14.01,2013-03-10 12:50:00,
2013-03-10 05:55:00,53.2,37.0,30.23,West,260,0.0,3.0,54,0.00,,CLR,0.00,VWS V14.01,2013-03-10 12:55:00,
2013-03-10 06:00:00,52.2,37.0,30.24,SW,222,3.0,3.0,56,0.00,,CLR,0.00,VWS V14.01,2013-03-10 13:00:00,
2013-03-10 06:05:00,51.6,36.4,30.24,SW,222,0.0,3.0,56,0.00,,CLR,0.00,VWS V14.01,2013-03-10 13:05:00,
2013-03-10 06:10:00,51.4,35.8,30.24,SW,222,0.0,3.0,55,0.00,,CLR,0.00,VWS V14.01,2013-03-10 13:10:00,
2013-03-10 06:15:00,51.4,35.3,30.24,SW,222,0.0,0.0,54,0.00,,CLR,0.00,VWS V14.01,2013-03-10 13:15:00,
2013-03-10 06:20:00,51.3,37.0,30.24,SW,222,3.0,3.0,58,0.00,,CLR,0.00,VWS V14.01,2013-03-10 13:20:00,
2013-03-10 06:25:00,50.4,37.5,30.24,WSW,252,3.0,4.0,61,0.00,,CLR,0.00,VWS V14.01,2013-03-10 13:25:00,
2013-03-10 06:30:00,49.2,38.0,30.25,SW,229,1.0,4.0,65,0.00,,CLR,0.00,VWS V14.01,2013-03-10 13:30:00,
2013-03-10 06:35:00,48.2,38.2,30.25,SW,231,2.0,4.0,68,0.00,,CLR,0.00,VWS V14.01,2013-03-10 13:35:00,
2013-03-10 06:40:00,47.7,38.8,30.25,SW,215,1.0,4.0,71,0.00,,CLR,0.00,VWS V14.01,2013-03-10 13:40:00,
2013-03-10 06:45:00,47.4,39.2,30.25,SSW,208,2.0,2.0,73,0.00,,CLR,0.00,VWS V14.01,2013-03-10 13:45:00,
2013-03-10 06:50:00,47.3,39.5,30.25,SSW,192,3.0,3.0,74,0.00,,CLR,0.00,VWS V14.01,2013-03-10 13:50:00,
2013-03-10 06:55:00,47.3,39.5,30.25,SSW,192,3.0,3.0,74,0.00,,CLR,0.00,VWS V14.01,2013-03-10 13:55:00,
2013-03-10 07:00:00,47.1,39.9,30.26,SSW,192,0.0,0.0,76,0.00,,CLR,0.00,VWS V14.01,2013-03-10 14:00:00,
2013-03-10 07:05:00,47.0,40.2,30.26,ENE,72,3.0,3.0,77,0.00,,CLR,0.00,VWS V14.01,2013-03-10 14:05:00,
2013-03-10 07:10:00,46.7,40.2,30.26,ENE,72,0.0,3.0,78,0.00,,CLR,0.00,VWS V14.01,2013-03-10 14:10:00,
2013-03-10 07:15:00,46.7,40.2,30.26,ENE,72,0.0,0.0,78,0.00,,CLR,0.00,VWS V14.01,2013-03-10 14:15:00,
2013-03-10 07:20:00,46.5,39.4,30.26,South,178,0.0,0.0,76,0.00,,CLR,0.00,VWS V14.01,2013-03-10 14:20:00,
2013-03-10 07:25:00,46.5,39.4,30.26,South,178,2.0,2.0,76,0.00,,CLR,0.00,VWS V14.01,2013-03-10 14:25:00,
2013-03-10 07:30:00,46.7,38.9,30.27,South,178,0.0,0.0,74,0.00,,CLR,0.00,VWS V14.01,2013-03-10 14:30:00,
2013-03-10 07:35:00,46.8,39.0,30.27,WNW,301,1.0,3.0,74,0.00,,CLR,0.00,VWS V14.01,2013-03-10 14:35:00,
2013-03-10 07:40:00,47.1,37.5,30.27,NW,309,2.0,4.0,69,0.00,,CLR,0.00,VWS V14.01,2013-03-10 14:40:00,
2013-03-10 07:45:00,47.7,36.9,30.27,NW,310,1.0,1.0,66,0.00,,CLR,0.00,VWS V14.01,2013-03-10 14:45:00,
2013-03-10 07:50:00,48.8,36.8,30.27,NNW,336,2.0,4.0,63,0.00,,CLR,0.00,VWS V14.01,2013-03-10 14:50:00,
2013-03-10 07:55:00,49.8,36.1,30.27,NW,318,4.0,4.0,59,0.00,,CLR,0.00,VWS V14.01,2013-03-10 14:55:00,
2013-03-10 08:00:00,50.7,35.6,30.26,NW,321,3.0,3.0,56,0.00,,CLR,0.00,VWS V14.01,2013-03-10 15:00:00,
2013-03-10 08:05:00,51.4,35.8,30.26,NW,318,0.0,4.0,55,0.00,,CLR,0.00,VWS V14.01,2013-03-10 15:05:00,
2013-03-10 08:10:00,52.0,35.4,30.26,North,8,0.0,4.0,53,0.00,,CLR,0.00,VWS V14.01,2013-03-10 15:10:00,
2013-03-10 08:15:00,52.3,35.2,30.26,North,8,2.0,2.0,52,0.00,,CLR,0.00,VWS V14.01,2013-03-10 15:15:00,
2013-03-10 08:20:00,53.1,36.0,30.26,NW,319,0.0,6.0,52,0.00,,CLR,0.00,VWS V14.01,2013-03-10 15:20:00,
2013-03-10 08:25:00,53.6,36.9,30.26,North,349,1.0,7.0,53,0.00,,CLR,0.00,VWS V14.01,2013-03-10 15:25:00,
2013-03-10 08:30:00,53.6,36.4,30.26,WNW,298,0.0,3.0,52,0.00,,CLR,0.00,VWS V14.01,2013-03-10 15:30:00,
2013-03-10 08:35:00,53.6,37.8,30.26,NNE,15,1.0,8.0,55,0.00,,CLR,0.00,VWS V14.01,2013-03-10 15:35:00,
2013-03-10 08:40:00,53.8,38.5,30.26,North,3,9.0,9.0,56,0.00,,CLR,0.00,VWS V14.01,2013-03-10 15:40:00,
2013-03-10 08:45:00,54.4,38.1,30.26,NNE,25,4.0,7.0,54,0.00,,CLR,0.00,VWS V14.01,2013-03-10 15:45:00,
2013-03-10 08:50:00,55.1,37.8,30.26,North,11,5.0,8.0,52,0.00,,CLR,0.00,VWS V14.01,2013-03-10 15:50:00,
2013-03-10 08:55:00,55.7,36.3,30.26,NW,325,2.0,8.0,48,0.00,,CLR,0.00,VWS V14.01,2013-03-10 15:55:00,
2013-03-10 09:00:00,56.3,35.8,30.27,NNW,338,3.0,3.0,46,0.00,,CLR,0.00,VWS V14.01,2013-03-10 16:00:00,
2013-03-10 09:05:00,56.3,36.9,30.27,NE,35,0.0,9.0,48,0.00,,CLR,0.00,VWS V14.01,2013-03-10 16:05:00,
2013-03-10 09:11:00,56.3,37.9,30.27,ENE,68,2.0,9.0,50,0.00,,CLR,0.00,VWS V14.01,2013-03-10 16:11:00,
2013-03-10 09:15:00,52.3,34.7,30.26,North,8,0.0,4.0,51,0.00,,CLR,0.00,VWS V14.01,2013-03-10 16:15:00,
2013-03-10 09:16:00,56.5,37.1,30.27,NNW,344,0.0,3.0,48,0.00,,CLR,0.00,VWS V14.01,2013-03-10 16:16:00,
2013-03-10 09:21:00,56.6,38.2,30.27,ENE,69,1.0,6.0,50,0.00,,CLR,0.00,VWS V14.01,2013-03-10 16:21:00,
2013-03-10 09:26:00,56.9,38.5,30.27,NNE,25,0.0,6.0,50,0.00,,CLR,0.00,VWS V14.01,2013-03-10 16:26:00,
2013-03-10 09:31:00,57.2,36.6,30.27,North,8,5.0,5.0,46,0.00,,CLR,0.00,VWS V14.01,2013-03-10 16:31:00,
2013-03-10 09:36:00,57.5,35.8,30.27,NW,324,2.0,7.0,44,0.00,,CLR,0.00,VWS V14.01,2013-03-10 16:36:00,
2013-03-10 09:41:00,57.8,35.5,30.27,NW,325,0.0,7.0,43,0.00,,CLR,0.00,VWS V14.01,2013-03-10 16:41:00,
2013-03-10 09:46:00,58.1,39.1,30.27,NNE,29,0.0,0.0,49,0.00,,CLR,0.00,VWS V14.01,2013-03-10 16:46:00,
2013-03-10 09:51:00,58.3,40.8,30.27,NE,40,2.0,4.0,52,0.00,,CLR,0.00,VWS V14.01,2013-03-10 16:51:00,
2013-03-10 09:56:00,58.4,39.8,30.27,NE,43,1.0,5.0,50,0.00,,CLR,0.00,VWS V14.01,2013-03-10 16:56:00,
2013-03-10 10:00:00,56.2,35.7,30.27,NNW,343,0.0,8.0,46,0.00,,CLR,0.00,VWS V14.01,2013-03-10 17:00:00,
2013-03-10 10:01:00,58.4,40.4,30.27,NE,44,0.0,1.0,51,0.00,,CLR,0.00,VWS V14.01,2013-03-10 17:01:00,
2013-03-10 10:06:00,58.6,45.2,30.27,ENE,58,0.0,3.0,61,0.00,,CLR,0.00,VWS V14.01,2013-03-10 17:06:00,
2013-03-10 10:11:00,58.1,45.6,30.27,NE,55,0.0,3.0,63,0.00,,CLR,0.00,VWS V14.01,2013-03-10 17:11:00,
2013-03-10 10:15:00,56.3,36.9,30.27,NW,323,0.0,9.0,48,0.00,,CLR,0.00,VWS V14.01,2013-03-10 17:15:00,
2013-03-10 10:16:00,57.2,44.7,30.27,ENE,73,1.0,1.0,63,0.00,,CLR,0.00,VWS V14.01,2013-03-10 17:16:00,
2013-03-10 10:21:00,57.6,44.7,30.27,East,82,0.0,2.0,62,0.00,,CLR,0.00,VWS V14.01,2013-03-10 17:21:00,
2013-03-10 10:26:00,57.5,44.2,30.27,SSE,147,0.0,3.0,61,0.00,,CLR,0.00,VWS V14.01,2013-03-10 17:26:00,
2013-03-10 10:30:00,57.2,36.6,30.27,NE,47,1.0,6.0,46,0.00,,CLR,0.00,VWS V14.01,2013-03-10 17:30:00,
2013-03-10 10:31:00,57.5,46.6,30.27,SW,221,0.0,3.0,67,0.00,,CLR,0.00,VWS V14.01,2013-03-10 17:31:00,
2013-03-10 10:36:00,58.4,45.9,30.27,South,190,1.0,3.0,63,0.00,,CLR,0.00,VWS V14.01,2013-03-10 17:36:00,
2013-03-10 10:41:00,58.3,44.0,30.27,SSW,197,1.0,3.0,59,0.00,,CLR,0.00,VWS V14.01,2013-03-10 17:41:00,
2013-03-10 10:45:00,58.0,37.4,30.27,NNE,29,0.0,7.0,46,0.00,,CLR,0.00,VWS V14.01,2013-03-10 17:45:00,
2013-03-10 10:46:00,58.3,45.3,30.27,SSW,200,1.0,4.0,62,0.00,,CLR,0.00,VWS V14.01,2013-03-10 17:46:00,
2013-03-10 10:51:00,58.6,44.8,30.27,SSE,159,0.0,4.0,60,0.00,,CLR,0.00,VWS V14.01,2013-03-10 17:51:00,
2013-03-10 10:56:00,58.6,45.6,30.27,SSE,168,0.0,4.0,62,0.00,,CLR,0.00,VWS V14.01,2013-03-10 17:56:00,
2013-03-10 11:01:00,59.2,46.2,30.27,SE,127,0.0,0.0,62,0.00,,CLR,0.00,VWS V14.01,2013-03-10 18:01:00,
2013-03-10 11:06:00,59.5,46.5,30.27,East,89,0.0,1.0,62,0.00,,CLR,0.00,VWS V14.01,2013-03-10 18:06:00,
2013-03-10 11:11:00,59.9,44.7,30.27,SE,139,0.0,2.0,57,0.00,,CLR,0.00,VWS V14.01,2013-03-10 18:11:00,
2013-03-10 11:15:00,57.3,44.4,30.27,ENE,73,0.0,3.0,62,0.00,,CLR,0.00,VWS V14.01,2013-03-10 18:15:00,
2013-03-10 11:16:00,61.0,47.5,30.26,SE,139,1.0,1.0,61,0.00,,CLR,0.00,VWS V14.01,2013-03-10 18:16:00,
2013-03-10 11:21:00,62.9,47.9,30.26,WSW,252,0.0,2.0,58,0.00,,CLR,0.00,VWS V14.01,2013-03-10 18:21:00,
2013-03-10 11:26:00,62.9,48.4,30.26,SW,235,0.0,2.0,59,0.00,,CLR,0.00,VWS V14.01,2013-03-10 18:26:00,
2013-03-10 11:31:00,62.0,48.0,30.26,SW,220,1.0,2.0,60,0.00,,CLR,0.00,VWS V14.01,2013-03-10 18:31:00,
2013-03-10 11:36:00,62.9,48.8,30.26,WNW,289,3.0,3.0,60,0.00,,CLR,0.00,VWS V14.01,2013-03-10 18:36:00,
2013-03-10 11:41:00,62.6,49.0,30.26,SW,227,1.0,3.0,61,0.00,,CLR,0.00,VWS V14.01,2013-03-10 18:41:00,
2013-03-10 11:45:00,58.3,45.3,30.27,SSW,200,4.0,4.0,62,0.00,,CLR,0.00,VWS V14.01,2013-03-10 18:45:00,
2013-03-10 11:46:00,62.7,49.5,30.24,WSW,249,3.0,3.0,62,0.00,,CLR,0.00,VWS V14.01,2013-03-10 18:46:00,
2013-03-10 11:51:00,63.5,50.3,30.24,WSW,254,0.0,3.0,62,0.00,,CLR,0.00,VWS V14.01,2013-03-10 18:51:00,
2013-03-10 11:56:00,64.7,51.8,30.24,WSW,257,1.0,3.0,63,0.00,,CLR,0.00,VWS V14.01,2013-03-10 18:56:00,
2013-03-10 12:00:00,59.2,47.0,30.27,SE,127,0.0,4.0,64,0.00,,CLR,0.00,VWS V14.01,2013-03-10 19:00:00,
2013-03-10 12:01:00,63.2,46.8,30.24,SSW,201,2.0,2.0,55,0.00,,CLR,0.00,VWS V14.01,2013-03-10 19:01:00,
2013-03-10 12:06:00,63.5,47.5,30.24,West,281,0.0,3.0,56,0.00,,CLR,0.00,VWS V14.01,2013-03-10 19:06:00,
2013-03-10 12:11:00,64.2,47.2,30.24,NE,55,0.0,3.0,54,0.00,,CLR,0.00,VWS V14.01,2013-03-10 19:11:00,
2013-03-10 12:15:00,60.4,47.3,30.26,SE,139,1.0,2.0,62,0.00,,CLR,0.00,VWS V14.01,2013-03-10 19:15:00,
2013-03-10 12:16:00,64.0,46.0,30.24,WSW,256,3.0,4.0,52,0.00,,CLR,0.00,VWS V14.01,2013-03-10 19:16:00,
2013-03-10 12:21:00,64.8,46.3,30.24,NNE,20,0.0,4.0,51,0.00,,CLR,0.00,VWS V14.01,2013-03-10 19:21:00,
2013-03-10 12:26:00,66.0,48.9,30.24,NW,304,2.0,5.0,54,0.00,,CLR,0.00,VWS V14.01,2013-03-10 19:26:00,
2013-03-10 12:30:00,62.1,47.2,30.26,SW,234,0.0,2.0,58,0.00,,CLR,0.00,VWS V14.01,2013-03-10 19:30:00,
2013-03-10 12:31:00,67.3,43.5,30.24,NNE,15,1.0,2.0,42,0.00,,CLR,0.00,VWS V14.01,2013-03-10 19:31:00,
2013-03-10 12:36:00,66.9,47.1,30.24,NNE,25,1.0,2.0,49,0.00,,CLR,0.00,VWS V14.01,2013-03-10 19:36:00,
2013-03-10 12:41:00,66.0,47.4,30.24,NNE,25,0.0,2.0,51,0.00,,CLR,0.00,VWS V14.01,2013-03-10 19:41:00,
2013-03-10 12:45:00,62.7,49.5,30.24,WSW,257,0.0,5.0,62,0.00,,CLR,0.00,VWS V14.01,2013-03-10 19:45:00,
2013-03-10 12:46:00,65.8,48.7,30.24,ESE,104,0.0,1.0,54,0.00,,CLR,0.00,VWS V14.01,2013-03-10 19:46:00,
2013-03-10 12:51:00,66.0,44.1,30.24,NE,54,1.0,6.0,45,0.00,,CLR,0.00,VWS V14.01,2013-03-10 19:51:00,
2013-03-10 12:56:00,66.3,43.8,30.24,NE,46,4.0,11.0,44,0.00,,CLR,0.00,VWS V14.01,2013-03-10 19:56:00,
2013-03-10 13:01:00,66.3,39.3,30.24,NE,42,2.0,3.0,37,0.00,,CLR,0.00,VWS V14.01,2013-03-10 20:01:00,
2013-03-10 13:06:00,66.9,36.9,30.24,North,359,2.0,10.0,33,0.00,,CLR,0.00,VWS V14.01,2013-03-10 20:06:00,
2013-03-10 13:11:00,66.8,39.7,30.24,ENE,64,3.0,10.0,37,0.00,,CLR,0.00,VWS V14.01,2013-03-10 20:11:00,
2013-03-10 13:15:00,64.2,47.2,30.24,South,189,0.0,3.0,54,0.00,,CLR,0.00,VWS V14.01,2013-03-10 20:15:00,
2013-03-10 13:17:00,66.4,31.4,30.24,North,8,2.0,9.0,27,0.00,,CLR,0.00,VWS V14.01,2013-03-10 20:17:00,
2013-03-10 13:22:00,66.1,36.2,30.24,ENE,73,0.0,9.0,33,0.00,,CLR,0.00,VWS V14.01,2013-03-10 20:22:00,
2013-03-10 13:27:00,66.8,39.0,30.24,NE,48,3.0,9.0,36,0.00,,CLR,0.00,VWS V14.01,2013-03-10 20:27:00,
2013-03-10 13:32:00,66.9,36.9,30.23,NNE,25,5.0,7.0,33,0.00,,CLR,0.00,VWS V14.01,2013-03-10 20:32:00,
2013-03-10 13:37:00,67.3,38.7,30.23,South,188,3.0,7.0,35,0.00,,CLR,0.00,VWS V14.01,2013-03-10 20:37:00,
2013-03-10 13:42:00,66.4,49.8,30.23,ESE,123,0.0,7.0,55,0.00,,CLR,0.00,VWS V14.01,2013-03-10 20:42:00,
2013-03-10 13:47:00,66.9,48.2,30.22,ENE,64,2.0,6.0,51,0.00,,CLR,0.00,VWS V14.01,2013-03-10 20:47:00,
2013-03-10 13:52:00,65.5,49.9,30.22,ESE,111,0.0,6.0,57,0.00,,CLR,0.00,VWS V14.01,2013-03-10 20:52:00,
2013-03-10 13:57:00,65.6,46.5,30.22,SE,127,0.0,6.0,50,0.00,,CLR,0.00,VWS V14.01,2013-03-10 20:57:00,
2013-03-10 14:00:00,66.3,39.3,30.24,NE,35,2.0,11.0,37,0.00,,CLR,0.00,VWS V14.01,2013-03-10 21:00:00,
2013-03-10 14:02:00,65.3,47.2,30.21,South,175,0.0,5.0,52,0.00,,CLR,0.00,VWS V14.01,2013-03-10 21:02:00,
2013-03-10 14:07:00,65.3,49.7,30.21,SSW,211,1.0,6.0,57,0.00,,CLR,0.00,VWS V14.01,2013-03-10 21:07:00,
2013-03-10 14:12:00,65.8,47.7,30.21,SE,145,0.0,6.0,52,0.00,,CLR,0.00,VWS V14.01,2013-03-10 21:12:00,
2013-03-10 14:15:00,66.6,37.4,30.24,NNE,31,7.0,11.0,34,0.00,,CLR,0.00,VWS V14.01,2013-03-10 21:15:00,
2013-03-10 14:17:00,66.0,50.3,30.21,ESE,104,4.0,4.0,57,0.00,,CLR,0.00,VWS V14.01,2013-03-10 21:17:00,
2013-03-10 14:22:00,65.2,46.1,30.21,SSE,153,3.0,4.0,50,0.00,,CLR,0.00,VWS V14.01,2013-03-10 21:22:00,
2013-03-10 14:27:00,65.5,46.4,30.21,SSE,148,0.0,4.0,50,0.00,,CLR,0.00,VWS V14.01,2013-03-10 21:27:00,
2013-03-10 14:32:00,65.8,46.7,30.21,ENE,76,2.0,4.0,50,0.00,,CLR,0.00,VWS V14.01,2013-03-10 21:32:00,
2013-03-10 14:37:00,64.5,46.5,30.21,SE,146,2.0,5.0,52,0.00,,CLR,0.00,VWS V14.01,2013-03-10 21:37:00,
2013-03-10 14:42:00,63.4,46.0,30.21,SSW,212,2.0,5.0,53,0.00,,CLR,0.00,VWS V14.01,2013-03-10 21:42:00,
2013-03-10 14:47:00,64.5,48.0,30.21,South,173,1.0,3.0,55,0.00,,CLR,0.00,VWS V14.01,2013-03-10 21:47:00,
2013-03-10 14:52:00,65.5,48.9,30.21,ESE,106,3.0,3.0,55,0.00,,CLR,0.00,VWS V14.01,2013-03-10 21:52:00,
2013-03-10 14:57:00,65.0,45.9,30.21,South,189,2.0,4.0,50,0.00,,CLR,0.00,VWS V14.01,2013-03-10 21:57:00,
2013-03-10 15:00:00,65.8,50.2,30.21,SSE,156,3.0,6.0,57,0.00,,CLR,0.00,VWS V14.01,2013-03-10 22:00:00,
2013-03-10 15:02:00,65.0,48.0,30.20,ENE,57,1.0,2.0,54,0.00,,CLR,0.00,VWS V14.01,2013-03-10 22:02:00,
2013-03-10 15:07:00,65.2,46.6,30.20,WSW,241,0.0,7.0,51,0.00,,CLR,0.00,VWS V14.01,2013-03-10 22:07:00,
2013-03-10 15:13:00,65.3,47.8,30.20,ESE,115,4.0,7.0,53,0.00,,CLR,0.00,VWS V14.01,2013-03-10 22:13:00,
2013-03-10 15:18:00,65.5,46.4,30.20,SE,139,3.0,3.0,50,0.00,,CLR,0.00,VWS V14.01,2013-03-10 22:18:00,
2013-03-10 15:23:00,65.6,45.4,30.20,ESE,115,0.0,4.0,48,0.00,,CLR,0.00,VWS V14.01,2013-03-10 22:23:00,
2013-03-10 15:28:00,65.6,48.0,30.20,SE,125,0.0,4.0,53,0.00,,CLR,0.00,VWS V14.01,2013-03-10 22:28:00,
2013-03-10 15:30:00,65.6,48.5,30.21,SE,139,2.0,4.0,54,0.00,,CLR,0.00,VWS V14.01,2013-03-10 22:30:00,
2013-03-10 15:33:00,66.0,47.4,30.20,SSE,154,0.0,6.0,51,0.00,,CLR,0.00,VWS V14.01,2013-03-10 22:33:00,
2013-03-10 15:38:00,65.5,46.4,30.20,South,178,0.0,6.0,50,0.00,,CLR,0.00,VWS V14.01,2013-03-10 22:38:00,
2013-03-10 15:43:00,65.2,45.0,30.20,SE,141,1.0,6.0,48,0.00,,CLR,0.00,VWS V14.01,2013-03-10 22:43:00,
2013-03-10 15:48:00,65.3,47.2,30.20,ESE,113,1.0,3.0,52,0.00,,CLR,0.00,VWS V14.01,2013-03-10 22:48:00,
2013-03-10 15:53:00,65.5,47.4,30.20,SE,128,4.0,5.0,52,0.00,,CLR,0.00,VWS V14.01,2013-03-10 22:53:00,
2013-03-10 15:58:00,65.8,46.7,30.20,East,85,2.0,5.0,50,0.00,,CLR,0.00,VWS V14.01,2013-03-10 22:58:00,
2013-03-10 16:00:00,64.7,46.7,30.20,SE,127,0.0,4.0,52,0.00,,CLR,0.00,VWS V14.01,2013-03-10 23:00:00,
2013-03-10 16:03:00,66.0,46.3,30.20,SSW,199,0.0,4.0,49,0.00,,CLR,0.00,VWS V14.01,2013-03-10 23:03:00,
2013-03-10 16:08:00,65.5,45.3,30.20,South,185,0.0,4.0,48,0.00,,CLR,0.00,VWS V14.01,2013-03-10 23:08:00,
2013-03-10 16:13:00,65.8,47.7,30.20,East,93,0.0,4.0,52,0.00,,CLR,0.00,VWS V14.01,2013-03-10 23:13:00,
2013-03-10 16:15:00,65.5,46.9,30.20,ESE,102,1.0,7.0,51,0.00,,CLR,0.00,VWS V14.01,2013-03-10 23:15:00,
2013-03-10 16:18:00,65.8,47.7,30.20,East,85,3.0,3.0,52,0.00,,CLR,0.00,VWS V14.01,2013-03-10 23:18:00,
2013-03-10 16:23:00,65.6,46.5,30.20,South,183,1.0,3.0,50,0.00,,CLR,0.00,VWS V14.01,2013-03-10 23:23:00,
2013-03-10 16:28:00,65.8,46.7,30.20,ESE,109,0.0,3.0,50,0.00,,CLR,0.00,VWS V14.01,2013-03-10 23:28:00,
2013-03-10 16:30:00,65.8,46.7,30.20,East,79,2.0,4.0,50,0.00,,CLR,0.00,VWS V14.01,2013-03-10 23:30:00,
2013-03-10 16:33:00,65.6,47.0,30.19,SE,137,0.0,2.0,51,0.00,,CLR,0.00,VWS V14.01,2013-03-10 23:33:00,
2013-03-10 16:38:00,65.3,47.2,30.19,SE,124,0.0,4.0,52,0.00,,CLR,0.00,VWS V14.01,2013-03-10 23:38:00,
2013-03-10 16:43:00,64.8,44.7,30.19,SSW,198,0.0,4.0,48,0.00,,CLR,0.00,VWS V14.01,2013-03-10 23:43:00,
2013-03-10 16:45:00,65.0,46.5,30.20,ESE,107,1.0,6.0,51,0.00,,CLR,0.00,VWS V14.01,2013-03-10 23:45:00,
2013-03-10 16:48:00,64.8,47.8,30.19,SSE,158,0.0,5.0,54,0.00,,CLR,0.00,VWS V14.01,2013-03-10 23:48:00,
2013-03-10 16:53:00,64.2,45.7,30.19,South,183,2.0,5.0,51,0.00,,CLR,0.00,VWS V14.01,2013-03-10 23:53:00,
2013-03-10 16:58:00,64.2,45.7,30.19,SSW,212,2.0,5.0,51,0.00,,CLR,0.00,VWS V14.01,2013-03-10 23:58:00,
2013-03-10 17:03:00,64.0,43.4,30.20,East,82,1.0,1.0,47,0.00,,CLR,0.00,VWS V14.01,2013-03-11 00:03:00,
2013-03-10 17:08:00,63.9,46.0,30.20,East,82,1.0,2.0,52,0.00,,CLR,0.00,VWS V14.01,2013-03-11 00:08:00,
2013-03-10 17:13:00,63.7,45.8,30.20,SSE,167,0.0,3.0,52,0.00,,CLR,0.00,VWS V14.01,2013-03-11 00:13:00,
2013-03-10 17:18:00,63.2,45.3,30.19,ENE,65,0.0,3.0,52,0.00,,CLR,0.00,VWS V14.01,2013-03-11 00:18:00,
2013-03-10 17:23:00,62.9,46.0,30.19,East,87,0.0,3.0,54,0.00,,CLR,0.00,VWS V14.01,2013-03-11 00:23:00,
2013-03-10 17:28:00,62.6,45.2,30.19,East,99,3.0,3.0,53,0.00,,CLR,0.00,VWS V14.01,2013-03-11 00:28:00,
2013-03-10 17:30:00,65.8,45.6,30.19,SE,131,1.0,3.0,48,0.00,,CLR,0.00,VWS V14.01,2013-03-11 00:30:00,
2013-03-10 17:33:00,62.4,46.0,30.19,SSW,196,0.0,2.0,55,0.00,,CLR,0.00,VWS V14.01,2013-03-11 00:33:00,
2013-03-10 17:38:00,62.1,46.2,30.19,SSE,155,0.0,3.0,56,0.00,,CLR,0.00,VWS V14.01,2013-03-11 00:38:00,
2013-03-10 17:43:00,62.0,46.6,30.19,South,170,0.0,3.0,57,0.00,,CLR,0.00,VWS V14.01,2013-03-11 00:43:00,
2013-03-10 17:45:00,64.8,45.7,30.19,SSW,198,0.0,4.0,50,0.00,,CLR,0.00,VWS V14.01,2013-03-11 00:45:00,
2013-03-10 17:48:00,61.6,46.2,30.19,South,170,0.0,3.0,57,0.00,,CLR,0.00,VWS V14.01,2013-03-11 00:48:00,
2013-03-10 17:53:00,61.0,46.1,30.19,South,170,0.0,3.0,58,0.00,,CLR,0.00,VWS V14.01,2013-03-11 00:53:00,
2013-03-10 17:58:00,60.5,45.7,30.19,South,170,0.0,3.0,58,0.00,,CLR,0.00,VWS V14.01,2013-03-11 00:58:00,
2013-03-10 18:00:00,64.0,46.0,30.20,South,178,0.0,5.0,52,0.00,,CLR,0.00,VWS V14.01,2013-03-11 01:00:00,
2013-03-10 18:03:00,60.1,45.3,30.20,SE,139,0.0,1.0,58,0.00,,CLR,0.00,VWS V14.01,2013-03-11 01:03:00,
2013-03-10 18:08:00,59.5,44.3,30.20,ESE,108,3.0,3.0,57,0.00,,CLR,0.00,VWS V14.01,2013-03-11 01:08:00,
2013-03-10 18:14:00,58.7,44.0,30.20,East,95,0.0,4.0,58,0.00,,CLR,0.00,VWS V14.01,2013-03-11 01:14:00,
2013-03-10 18:15:00,63.4,45.0,30.19,SSE,166,1.0,3.0,51,0.00,,CLR,0.00,VWS V14.01,2013-03-11 01:15:00,
2013-03-10 18:19:00,57.8,44.0,30.21,East,98,2.0,3.0,60,0.00,,CLR,0.00,VWS V14.01,2013-03-11 01:19:00,
2013-03-10 18:24:00,57.2,43.9,30.21,East,98,2.0,3.0,61,0.00,,CLR,0.00,VWS V14.01,2013-03-11 01:24:00,
2013-03-10 18:29:00,56.9,44.0,30.21,East,98,0.0,3.0,62,0.00,,CLR,0.00,VWS V14.01,2013-03-11 01:29:00,
2013-03-10 18:30:00,62.6,45.7,30.20,East,99,0.0,3.0,54,0.00,,CLR,0.00,VWS V14.01,2013-03-11 01:30:00,
2013-03-10 18:34:00,56.6,42.9,30.21,East,98,1.0,3.0,60,0.00,,CLR,0.00,VWS V14.01,2013-03-11 01:34:00,
2013-03-10 18:39:00,56.5,42.8,30.21,East,98,1.0,3.0,60,0.00,,CLR,0.00,VWS V14.01,2013-03-11 01:39:00,
2013-03-10 18:44:00,56.5,42.4,30.21,East,98,0.0,3.0,59,0.00,,CLR,0.00,VWS V14.01,2013-03-11 01:44:00,
2013-03-10 18:45:00,61.8,46.4,30.19,South,170,1.0,3.0,57,0.00,,CLR,0.00,VWS V14.01,2013-03-11 01:45:00,
2013-03-10 18:49:00,56.6,42.0,30.21,East,98,0.0,2.0,58,0.00,,CLR,0.00,VWS V14.01,2013-03-11 01:49:00,
2013-03-10 18:54:00,56.5,41.9,30.21,East,98,0.0,2.0,58,0.00,,CLR,0.00,VWS V14.01,2013-03-11 01:54:00,
2013-03-10 18:59:00,56.5,41.9,30.21,East,98,0.0,2.0,58,0.00,,CLR,0.00,VWS V14.01,2013-03-11 01:59:00,
2013-03-10 19:00:00,60.5,45.2,30.20,South,170,1.0,3.0,57,0.00,,CLR,0.00,VWS V14.01,2013-03-11 02:00:00,
2013-03-10 19:04:00,56.5,41.9,30.21,East,98,0.0,0.0,58,0.00,,CLR,0.00,VWS V14.01,2013-03-11 02:04:00,
2013-03-10 19:09:00,56.3,41.7,30.21,East,98,0.0,0.0,58,0.00,,CLR,0.00,VWS V14.01,2013-03-11 02:09:00,
2013-03-10 19:14:00,56.2,41.6,30.21,East,98,0.0,0.0,58,0.00,,CLR,0.00,VWS V14.01,2013-03-11 02:14:00,
2013-03-10 19:15:00,58.6,44.3,30.21,East,95,0.0,4.0,59,0.00,,CLR,0.00,VWS V14.01,2013-03-11 02:15:00,
2013-03-10 19:19:00,56.0,41.5,30.21,East,98,0.0,0.0,58,0.00,,CLR,0.00,VWS V14.01,2013-03-11 02:19:00,
2013-03-10 19:24:00,56.0,41.5,30.21,East,98,0.0,0.0,58,0.00,,CLR,0.00,VWS V14.01,2013-03-11 02:24:00,
2013-03-10 19:29:00,56.3,41.3,30.21,East,98,1.0,1.0,57,0.00,,CLR,0.00,VWS V14.01,2013-03-11 02:29:00,
2013-03-10 19:30:00,56.7,43.4,30.21,East,98,1.0,3.0,61,0.00,,CLR,0.00,VWS V14.01,2013-03-11 02:30:00,
2013-03-10 19:34:00,56.6,41.6,30.21,West,270,4.0,4.0,57,0.00,,CLR,0.00,VWS V14.01,2013-03-11 02:34:00,
2013-03-10 19:39:00,56.3,41.7,30.21,West,270,3.0,4.0,58,0.00,,CLR,0.00,VWS V14.01,2013-03-11 02:39:00,
2013-03-10 19:44:00,55.9,41.8,30.21,West,270,3.0,4.0,59,0.00,,CLR,0.00,VWS V14.01,2013-03-11 02:44:00,
2013-03-10 19:45:00,56.5,42.4,30.21,East,98,0.0,3.0,59,0.00,,CLR,0.00,VWS V14.01,2013-03-11 02:45:00,
2013-03-10 19:49:00,55.4,41.3,30.21,West,281,3.0,5.0,59,0.00,,CLR,0.00,VWS V14.01,2013-03-11 02:49:00,
2013-03-10 19:54:00,55.3,41.2,30.21,West,281,4.0,5.0,59,0.00,,CLR,0.00,VWS V14.01,2013-03-11 02:54:00,
2013-03-10 19:59:00,55.6,42.0,30.21,West,276,2.0,6.0,60,0.00,,CLR,0.00,VWS V14.01,2013-03-11 02:59:00,
2013-03-10 20:00:00,56.5,41.9,30.21,East,98,0.0,2.0,58,0.00,,CLR,0.00,VWS V14.01,2013-03-11 03:00:00,
2013-03-10 20:04:00,55.6,42.8,30.21,WNW,288,4.0,6.0,62,0.00,,CLR,0.00,VWS V14.01,2013-03-11 03:04:00,
2013-03-10 20:09:00,55.6,42.8,30.21,NW,308,3.0,6.0,62,0.00,,CLR,0.00,VWS V14.01,2013-03-11 03:09:00,
2013-03-10 20:14:00,55.4,43.0,30.20,WNW,288,3.0,6.0,63,0.00,,CLR,0.00,VWS V14.01,2013-03-11 03:14:00,
2013-03-10 20:15:00,56.2,41.6,30.21,East,98,0.0,0.0,58,0.00,,CLR,0.00,VWS V14.01,2013-03-11 03:15:00,
2013-03-10 20:19:00,55.1,43.2,30.20,WNW,301,5.0,5.0,64,0.00,,CLR,0.00,VWS V14.01,2013-03-11 03:19:00,
2013-03-10 20:24:00,55.0,43.5,30.20,WSW,254,5.0,7.0,65,0.00,,CLR,0.00,VWS V14.01,2013-03-11 03:24:00,
2013-03-10 20:29:00,54.7,43.6,30.20,WNW,299,3.0,7.0,66,0.00,,CLR,0.00,VWS V14.01,2013-03-11 03:29:00,
2013-03-10 20:30:00,56.3,41.7,30.21,East,98,0.0,1.0,58,0.00,,CLR,0.00,VWS V14.01,2013-03-11 03:30:00,
2013-03-10 20:34:00,54.2,43.5,30.20,West,272,2.0,6.0,67,0.00,,CLR,0.00,VWS V14.01,2013-03-11 03:34:00,
2013-03-10 20:39:00,53.8,43.1,30.20,WNW,302,5.0,8.0,67,0.00,,CLR,0.00,VWS V14.01,2013-03-11 03:39:00,
2013-03-10 20:44:00,53.5,42.8,30.21,NW,312,3.0,8.0,67,0.00,,CLR,0.00,VWS V14.01,2013-03-11 03:44:00,
2013-03-10 20:45:00,55.9,41.8,30.21,West,270,3.0,4.0,59,0.00,,CLR,0.00,VWS V14.01,2013-03-11 03:45:00,
2013-03-10 20:49:00,53.3,43.8,30.21,West,268,2.0,7.0,70,0.00,,FEW006,0.00,VWS V14.01,2013-03-11 03:49:00,
2013-03-10 20:54:00,53.2,42.5,30.21,WNW,300,4.0,7.0,67,0.00,,FEW006,0.00,VWS V14.01,2013-03-11 03:54:00,
2013-03-10 20:59:00,53.1,41.7,30.22,North,8,4.0,7.0,65,0.00,,FEW006,0.00,VWS V14.01,2013-03-11 03:59:00,
2013-03-10 21:00:00,53.1,41.7,30.22,NNW,347,2.0,7.0,65,0.00,,FEW006,0.00,VWS V14.01,2013-03-11 04:00:00,
2013-03-10 21:05:00,53.1,42.5,30.22,NNW,331,6.0,6.0,67,0.00,,BKN006,0.00,VWS V14.01,2013-03-11 04:05:00,
2013-03-10 21:10:00,53.2,42.2,30.22,North,5,2.0,9.0,66,0.00,,BKN006,0.00,VWS V14.01,2013-03-11 04:10:00,
2013-03-10 21:15:00,53.2,42.5,30.21,NW,317,4.0,9.0,67,0.00,,CLR,0.00,VWS V14.01,2013-03-11 04:15:00,
2013-03-10 21:20:00,53.1,42.1,30.21,WNW,303,3.0,9.0,66,0.00,,CLR,0.00,VWS V14.01,2013-03-11 04:20:00,
2013-03-10 21:25:00,52.9,41.9,30.21,NW,314,5.0,9.0,66,0.00,,CLR,0.00,VWS V14.01,2013-03-11 04:25:00,
2013-03-10 21:30:00,52.9,41.1,30.21,NW,314,4.0,4.0,64,0.00,,BKN006,0.00,VWS V14.01,2013-03-11 04:30:00,
2013-03-10 21:35:00,52.9,40.7,30.21,WNW,296,2.0,5.0,63,0.00,,BKN006,0.00,VWS V14.01,2013-03-11 04:35:00,
2013-03-10 21:40:00,52.8,41.8,30.21,WNW,299,6.0,6.0,66,0.00,,BKN006,0.00,VWS V14.01,2013-03-11 04:40:00,
2013-03-10 21:45:00,52.5,41.9,30.21,WNW,302,8.0,8.0,67,0.00,,,0.00,VWS V14.01,2013-03-11 04:45:00,
2013-03-10 21:50:00,52.3,41.3,30.21,North,360,5.0,8.0,66,0.00,,,0.00,VWS V14.01,2013-03-11 04:50:00,
2013-03-10 21:55:00,52.3,40.5,30.21,NW,324,4.0,8.0,64,0.00,,,0.00,VWS V14.01,2013-03-11 04:55:00,
2013-03-10 22:00:00,52.3,40.9,30.21,NW,304,6.0,6.0,65,0.00,,,0.00,VWS V14.01,2013-03-11 05:00:00,
2013-03-10 22:05:00,52.3,41.3,30.21,WNW,282,5.0,7.0,66,0.00,,,0.00,VWS V14.01,2013-03-11 05:05:00,
2013-03-10 22:10:00,52.2,40.4,30.21,NW,313,3.0,7.0,64,0.00,,,0.00,VWS V14.01,2013-03-11 05:10:00,
2013-03-10 22:15:00,52.0,39.4,30.21,WNW,283,2.0,2.0,62,0.00,,,0.00,VWS V14.01,2013-03-11 05:15:00,
2013-03-10 22:20:00,51.9,38.5,30.21,NW,312,7.0,7.0,60,0.00,,,0.00,VWS V14.01,2013-03-11 05:20:00,
2013-03-10 22:25:00,52.2,38.3,30.21,NW,326,3.0,7.0,59,0.00,,,0.00,VWS V14.01,2013-03-11 05:25:00,
2013-03-10 22:30:00,52.3,38.0,30.21,NW,319,3.0,3.0,58,0.00,,,0.00,VWS V14.01,2013-03-11 05:30:00,
2013-03-10 22:35:00,52.6,38.3,30.21,WNW,290,0.0,5.0,58,0.00,,,0.00,VWS V14.01,2013-03-11 05:35:00,
2013-03-10 22:40:00,52.8,38.5,30.21,NNW,336,3.0,5.0,58,0.00,,,0.00,VWS V14.01,2013-03-11 05:40:00,
2013-03-10 22:45:00,52.9,38.1,30.20,WNW,285,4.0,4.0,57,0.00,,,0.00,VWS V14.01,2013-03-11 05:45:00,
2013-03-10 22:50:00,52.9,38.1,30.20,WNW,302,4.0,4.0,57,0.00,,,0.00,VWS V14.01,2013-03-11 05:50:00,
2013-03-10 22:55:00,53.2,37.9,30.20,NW,310,5.0,6.0,56,0.00,,,0.00,VWS V14.01,2013-03-11 05:55:00,
2013-03-10 23:00:00,53.2,37.9,30.20,NW,322,2.0,3.0,56,0.00,,,0.00,VWS V14.01,2013-03-11 06:00:00,
2013-03-10 23:05:00,53.1,38.3,30.20,West,274,3.0,4.0,57,0.00,,,0.00,VWS V14.01,2013-03-11 06:05:00,
2013-03-10 23:10:00,52.8,38.5,30.20,WNW,299,2.0,4.0,58,0.00,,,0.00,VWS V14.01,2013-03-11 06:10:00,
2013-03-10 23:15:00,52.3,38.4,30.20,WNW,291,5.0,5.0,59,0.00,,,0.00,VWS V14.01,2013-03-11 06:15:00,
2013-03-10 23:20:00,52.2,38.3,30.20,West,273,4.0,7.0,59,0.00,,,0.00,VWS V14.01,2013-03-11 06:20:00,
2013-03-10 23:25:00,52.2,37.9,30.20,WNW,286,4.0,7.0,58,0.00,,,0.00,VWS V14.01,2013-03-11 06:25:00,
2013-03-10 23:30:00,52.3,38.0,30.19,WNW,295,3.0,4.0,58,0.00,,,0.00,VWS V14.01,2013-03-11 06:30:00,
2013-03-10 23:35:00,52.5,37.7,30.19,WNW,298,1.0,5.0,57,0.00,,,0.00,VWS V14.01,2013-03-11 06:35:00,
2013-03-10 23:40:00,52.6,37.8,30.19,WNW,287,5.0,7.0,57,0.00,,,0.00,VWS V14.01,2013-03-11 06:40:00,
2013-03-10 23:45:00,52.8,36.6,30.19,NW,316,4.0,4.0,54,0.00,,,0.00,VWS V14.01,2013-03-11 06:45:00,
2013-03-10 23:50:00,53.1,35.5,30.19,NNW,338,5.0,9.0,51,0.00,,,0.00,VWS V14.01,2013-03-11 06:50:00,
2013-03-10 23:55:00,53.3,35.2,30.19,WNW,297,3.0,9.0,50,0.00,,,0.00,VWS V14.01,2013-03-11 06:55:00,